TimeEDT,TemperatureF,Dew PointF,Humidity,Sea Level PressureIn,VisibilityMPH,Wind Direction,Wind SpeedMPH,Gust SpeedMPH,PrecipitationIn,Events,Conditions,WindDirDegrees,DateUTC
12:54 AM,54.0,53.1,97,30.22,8.0,WNW,3.5,-,N/A,,Partly Cloudy,300,2013-08-17 04:54:00
1:54 AM,53.1,52.0,96,30.22,10.0,Calm,Calm,-,N/A,,Scattered Clouds,0,2013-08-17 05:54:00
2:54 AM,55.0,53.1,93,30.23,10.0,Calm,Calm,-,N/A,,Partly Cloudy,0,2013-08-17 06:54:00
3:54 AM,53.1,52.0,96,30.23,7.0,Calm,Calm,-,N/A,,Scattered Clouds,0,2013-08-17 07:54:00
4:54 AM,52.0,51.1,97,30.24,3.0,Calm,Calm,-,N/A,,Clear,0,2013-08-17 08:54:00
4:57 AM,51.8,50.0,94,30.24,1.5,Calm,Calm,-,N/A,,Partly Cloudy,0,2013-08-17 08:57:00
5:00 AM,51.8,50.0,94,30.24,1.0,Calm,Calm,-,N/A,,Mist,0,2013-08-17 09:00:00
5:07 AM,51.8,50.0,94,30.24,1.5,Calm,Calm,-,N/A,,Partly Cloudy,0,2013-08-17 09:07:00
5:15 AM,50.0,48.2,94,30.24,1.0,Calm,Calm,-,N/A,,Mist,0,2013-08-17 09:15:00
5:22 AM,51.8,48.2,88,30.24,0.8,Calm,Calm,-,N/A,,Mist,0,2013-08-17 09:22:00
5:24 AM,51.8,48.2,88,30.24,1.2,Calm,Calm,-,N/A,,Partly Cloudy,0,2013-08-17 09:24:00
5:26 AM,51.8,48.2,88,30.24,3.0,Calm,Calm,-,N/A,,Partly Cloudy,0,2013-08-17 09:26:00
5:54 AM,50.0,48.9,96,30.25,5.0,Calm,Calm,-,N/A,,Clear,0,2013-08-17 09:54:00
6:02 AM,50.0,48.2,94,30.25,1.8,Calm,Calm,-,N/A,,Clear,0,2013-08-17 10:02:00
6:12 AM,50.0,48.2,94,30.25,4.0,Calm,Calm,-,N/A,,Clear,0,2013-08-17 10:12:00
6:54 AM,53.1,51.1,93,30.27,8.0,Calm,Calm,-,N/A,,Clear,0,2013-08-17 10:54:00
7:54 AM,61.0,55.9,83,30.28,10.0,Calm,Calm,-,N/A,,Clear,0,2013-08-17 11:54:00
8:54 AM,68.0,57.0,68,30.28,10.0,Calm,Calm,-,N/A,,Clear,0,2013-08-17 12:54:00
9:54 AM,71.1,55.0,57,30.29,10.0,Calm,Calm,-,N/A,,Clear,0,2013-08-17 13:54:00
10:54 AM,73.9,54.0,50,30.28,10.0,Variable,3.5,-,N/A,,Clear,0,2013-08-17 14:54:00
11:54 AM,75.0,52.0,44,30.27,10.0,Variable,4.6,-,N/A,,Clear,0,2013-08-17 15:54:00
12:54 PM,75.9,52.0,43,30.27,10.0,ESE,5.8,-,N/A,,Partly Cloudy,120,2013-08-17 16:54:00
1:54 PM,78.1,51.1,39,30.26,10.0,Variable,3.5,-,N/A,,Scattered Clouds,0,2013-08-17 17:54:00
2:54 PM,77.0,51.1,40,30.25,10.0,NW,5.8,-,N/A,,Partly Cloudy,310,2013-08-17 18:54:00
3:54 PM,80.1,50.0,35,30.25,10.0,NW,8.1,-,N/A,,Clear,320,2013-08-17 19:54:00
4:54 PM,79.0,48.0,34,30.24,10.0,West,4.6,-,N/A,,Clear,280,2013-08-17 20:54:00
5:54 PM,78.1,50.0,37,30.25,10.0,Variable,3.5,-,N/A,,Clear,0,2013-08-17 21:54:00
6:54 PM,72.0,57.9,61,30.26,10.0,Calm,Calm,-,N/A,,Clear,0,2013-08-17 22:54:00
7:54 PM,61.0,57.0,87,30.27,10.0,Calm,Calm,-,N/A,,Clear,0,2013-08-17 23:54:00
8:54 PM,57.0,55.0,93,30.27,10.0,Calm,Calm,-,N/A,,Clear,0,2013-08-18 00:54:00
9:54 PM,55.9,53.1,90,30.28,10.0,Calm,Calm,-,N/A,,Clear,0,2013-08-18 01:54:00
10:54 PM,53.1,51.1,93,30.29,10.0,Calm,Calm,-,N/A,,Clear,0,2013-08-18 02:54:00
11:54 PM,51.1,50.0,96,30.29,5.0,Calm,Calm,-,N/A,,Clear,0,2013-08-18 03:54:00